Погода в Кочко-Пожарках

Россия / Нижегородская область     55°29′44″N   45°29′18″E
темп.,
°C
ветер,
м/с
пор.,
м/с
влажн.,
%
обл.,
%
осадки,
мм/ч
давл.,
гПа
погр.,
м
2 июля, сб
сб200:00+11ссв514920 0.0 1017392
03:00+10ссв4119473 0.0 1017256
06:00+12ссв5118132 0.0 1017318
09:00+17ссв696420 0.0 1018668
12:00+20ссв57513 0.0 10171537
15:00+21св464612 0.0 10161940
18:00+21всв23629 0.0 1014314
21:00+15ссв227461 0.0 101522
3 июля, вс
вс300:00+15св116852 0.0 101511
03:00+14ссз226976 0.0 101418
06:00+16с237142 0.0 1014117
09:00+19ссв346553 0.0 1014631
12:00+21ссв456832 0.9 10141015
15:00+22ссв6763100 1.6 10131400
18:00+19ссв5872100 0.1 1014660
21:00+14ссв23885 0.1 101529
4 июля, пн
пн400:00+13с22895 0.0 101515
03:00+12ссз229012 0.0 101518
06:00+15сз378293 0.0 1015189
09:00+20ссз586666 0.0 1015734
12:00+23ссв584964 0.0 10152156
15:00+23св464427 0.0 10152030
18:00+22всв236010 0.0 1015238
21:00+16св227137 0.0 101711
5 июля, вт
вт500:00+14юз118227 0.0 101711
03:00+13зюз118214 0.0 101811
06:00+17з00739 0.0 101860
09:00+22зсз01575 0.0 1018490
12:00+25сз11441 0.0 10181597
15:00+25сз12434 0.0 10181793
18:00+24юз23607 0.0 1017157
21:00+19юз22660 0.0 101716
6 июля, ср
ср600:00+17юз34690 0.0 101750
03:00+16юз34755 0.0 101753
06:00+19юз377922 0.0 1017176
09:00+21юз477365 0.0 1017289
12:00+22юз467494 0.0 1017308
15:00+26ююз45605 0.1 1015741
18:00+21зюз8148015 1.1 1016583
21:00+18ююз259028 1.3 101671